Погода Жигалово

Погода Жигалово : погода сейчас, прогноз погоды и архив. Всё, что Вы хотите узнать о погоде Жигалово!

Хотите узнать прогноз погоды Жигалово? Тогда Вам сюда: Погода Жигалово

Поиск расширенной информации на нашем сайте:

Другие новости

Новости СМИ2

Главная страница сайта

Новости сайта

02.10.2013

Напоминаем, что на нашем новом сайте вы можете получить высокодетализированные прогнозы погоды по пунктам России, СНГ и мира (включающие важные для авиации метеовеличины, такие как направление и скорость ветра, видимость, явления погоды, количество и форма облачности, нижняя и верхняя граница облачности), а также ознакомиться с разнообразными материалами по авиационной метеорологии и подборкой полезных ссылок на эту тему.

Сайт Метеоцентр.Азия посвящён разработке технологий оптимизации авиаметеорологического обслуживания, включая проектирование и перспективное создание нескольких автоматизированных авиаметеорологических систем:
- система выпуска высокодетальных прогностических карт явлений погоды для нижнего воздушного пространства по России и ближнему зарубежью;
- система верификации прогнозов TAF (выпускаемых синоптиками официальных АМСГ РФ и ближнего зарубежья) и AUTOTAF (выпускаемых сайтом Метеоцентр.Азия) - выявление ошибок, онлайн-сопоставление с фактической погодой METAR, автоматическое внесение коррективов в прогнозы при резком отклонении фактической погоды от прогноза, подсчёт оправдываемости прогнозов по элементам и в целом;
- система обработки, анализа и отображения авиаметеорологической информации для применения провайдерами метеорологической информации.


Погода Жигалово - сегодня

Время (UTC), дата Ветер
(°,м/с) 
Видим.   Явления Облачность Т
(°С)
Тd
(°С)
f(%) Тe
(°С)
Pmin
(гПа)
dP
(гПа)
Po
(мм)
O2
(г/м3)
Тmin Tmax R s Состояние
почвы
03 26.04.17 060 (СВ) 20000 м    8/0 верхняя 
[Ci fib]
+11.5 -6.4 28 +13  1028.4  -1.4  734  284           
06 26.04.17 270 (З) 6-10{12}  20000 м    8/0 верхняя 
[Cc]
+20.7 -7.4 14 +21  1023.7  -2.9  731  275           
09 26.04.17 290 (З) 5{13}  20000 м    10/3 1000 м средняя, верхняя 
[Sc|Ac trans|Cc]
+20.6 -6.1 16 +21  1021.7  -1.9  730  274           
12 26.04.17 270 (З) 2{11}  20000 м    10/0 средняя, верхняя 
[Ac trans|Ci fib]
+16 -4.4 24 +17  1022.1  -0.4  730  278    +21.6       
15 26.04.17 210 (ЮЗ) н/о    10/0 верхняя 
[Ci fib]
+7.6 -3.2 46 +9  1023.8  0.2  730  286           
18 26.04.17 260 (З) н/о    10/0 верхняя 
[Ci fib]
+2.7 -2.8 67 +3  1024.7  730  291           
21 26.04.17 тихо ()   н/о    10/0 средняя, верхняя 
[Ac trans|Ci fib]
+1.6 -2.6 74 +2  1024.3  -0.6  729  292           
00 27.04.17 тихо ()   20000 м    10/3 1000 м средняя, верхняя 
[Sc|Ac trans|Ci fib]
+4.4 -1.4 66 +4  1023.3  -0.4  729  289  +0.7         
03 27.04.17 350 (С) 20000 м    10/0 средняя 
[Ac As]
+12 -1.3 40 +13  1020.7  -1.2  728  281           
06 27.04.17 260 (З) 20000 м    10/0 средняя 
[Ac As]
+21.2 -2 21 +21  1015.8  -3.1  726  272           
09 27.04.17 280 (З) 10 км  дым  10/0 средняя, верхняя 
[Ac trans|Ci fib]
+22.6 -5.3 15 +23  1013  -2.5  724  270           
12 27.04.17 160 (Ю) 10 км  дым  10/3 1000 м средняя 
[Sc|Ac As]
+15.9 -1.5 30 +17  1012.5  -1.5  723  275    +23       
15 27.04.17 080 (В) н/о    6/0 верхняя 
[Ci fib]
+7.3 -1.9 52 +8  1013.8  -0.2  723  284           
18 27.04.17 тихо ()   н/о    ясно 
+1.8 -2.5 73 +2  1014  -0.8  722  289           
21 27.04.17 тихо ()   н/о    ясно 
-1 -3.6 82 -1  1012.6  -1.9  721  292           
00 28.04.17 тихо ()   20000 м  дым  ясно 
+3.4 -1.2 72 +3  1010.8  -0.9  720  287  -1.9         
03 28.04.17 130 (ЮВ) 10 км  дым  10/0 верхняя 
[Ci fib]
+18.9 -0.8 26 +20  1005.1  -2.8  718  271           
06 28.04.17 260 (З) 9-15{16}  10 км    10/8 600 м кучево-дожд., верхняя 
[Cb cap|Ci fib]
+24.7 -2.7 16 +25  1002.2  -1.9  717  265           
09 28.04.17 280 (З) 7-12{20}  10 км  дым  10/6 600 м кучево-дожд., верхняя 
[Cb cap|Ci fib]
+20.9 +2.5 30 +21  1004.1  1.3  718  268           
12 28.04.17 300 (СЗ) 5-10{16}  10 км  дым  10/3 600 м кучево-дожд., верхняя 
[Cb cap|Ci fib]
+17.5 -6.7 19 +18  1006.6  1.7  719  273    +26       
15 28.04.17 270 (З) 3{11}  н/о    8/0 верхняя 
[Ci fib]
+12.4 -6.3 27 +12  1010.7  3.2  721  279           
18 28.04.17 290 (З) н/о    6/0 верхняя 
[Ci fib]
+4.6 -7.4 41 +5  1014.8  2.5  723  287           
21 28.04.17 тихо ()   н/о    3/0 верхняя 
[Ci fib]
-0.1 -7.4 58 -0  1017.1  1.3  724  293           
00 29.04.17 310 (СЗ) 20000 м    3/0 верхняя 
[Ci fib]
+4.9 -6 45 +6  1016.9  0.7  725  287  -2.8         
03 29.04.17 140 (ЮВ) 20000 м    10/0 верхняя 
[Ci fib]
+13.6 -9.2 20 +15  1013.4  -1.8  723  278           
Время (UTC), дата Ветер
(°,м/с) 
Видим.   Явления Облачность Т
(°С)
Тd
(°С)
f(%) Тe
(°С)
Pmin
(гПа)
dP
(гПа)
Po
(мм)
O2
(г/м3)
Тmin Tmax R s Состояние
почвы

Для получения пояснительной информации подведите курсор к названию столбца.

ПОГОДА Жигалово - архив

Всё, что Вы хотите узнать о погоде Жигалово - удобно и подробно!

Выберите нужную дату (начиная с 1 января 2015* года) и нажмите кнопку "Найти".
Будут отображены архивные сводки погоды по пункту Жигалово, начиная с указанной даты.


Отображать данные в формате CSV (для использования в таблицах Excel)


Внимание! Наш архив погоды предназначен исключительно для личного некоммерческого использования в познавательных целях. Если Вам необходимы официальные справки о состоянии погоды (для производственных, юридических, коммерческих и т.п. целей), обращайтесь в органы Росгидромета.

*Примечание: данная дата относится к архиву по метеостанциям СССР (Россия, СНГ, Балтия).
Архив по метеостанциям Зарубежной Европы и Азии (кроме Китая) хранится 10 дней, по другим регионам земного шара (Китай, Африка, Америка, Австралия, Океания) - 1 день.

Жигалово - район местоположения метеостанции


Название, широта, долгота, высота метеостанции:
Жигалово 54.8°ш. 105.2°д. 426 м над ур. моря [Российская Федерация]

Дополнительная информация

В oтличие oт бoльшинства пoгoдных сайтoв мы публикуем пoдрoбную метеoинфoрмацию в детальнoм прoфессиoнальнoм фoрмате.

Характеристики температуры и влажнoсти вoздуха измеряются на высoте 2 м в тени вдали oт зданий и деревьев.
Скoрoсть ветра измеряется на высoте 10 м (на урoвне рoста челoвека скoрoсть ветра ниже в 1.5-2 раза). Если метеoстанция нахoдится в гoрoде или в лесу, тo скoрoсть ветра занижена на 2-4 м/с пo сравнению с oткрытым местoм. Скoрoсть ветра над акватoриями крупных рек и oзёр, а также на вершинах хoлмoв на 2-5 м/с выше, чем в oбычных услoвиях.
Атмoсфернoе давление в разных тoчках местнoсти мoжет значительнo oтличаться oт давления на метеoстанции, в зависимoсти oт услoвий рельефа (при пoдъёме на 10 м давление пoнижается примернo на 1 мм рт.ст.).